Simultaneous Nadir Overpasses (SNOs) Predictions

Prediction of SNOs between GOES-17 and AQUA Satellite Orbit:

Table of predicted SNOs for the next 14.0 days since TLE Epoch: 9/17/2022
Index Date Time (GOES-17) GOES-17 Lat,Lon AQUA Lat,Lon Distance(km) Time Diff (sec)
1 09/17/2022 10:49:02 0.06,-137.30 -0.07,-136.80 56.89 80
2 09/19/2022 10:36:18 0.05,-137.28 -0.69,-133.70 406.65 80
3 09/19/2022 22:54:54 -0.05,-137.27 -0.39,-138.85 180.04 80
4 09/21/2022 22:44:50 -0.04,-137.25 0.26,-135.75 169.30 80
5 09/22/2022 11:03:18 0.04,-137.24 0.79,-140.88 413.77 80
6 09/24/2022 10:50:33 0.03,-137.21 0.18,-137.77 64.76 80
7 09/26/2022 10:40:29 0.03,-137.17 -0.51,-134.68 284.15 80
8 09/26/2022 22:59:04 -0.03,-137.16 -0.60,-139.83 302.87 80
9 09/28/2022 22:48:59 -0.03,-137.12 0.05,-136.72 45.25 80
10 09/30/2022 22:36:14 -0.03,-137.07 0.72,-133.62 392.36 80
